Погода в Петро-Славянке

Россия / Санкт-Петербург и Ленинградская область     59°48′13″N   30°31′09″E
темп.,
°C
ветер,
м/с
пор.,
м/с
влажн.,
%
обл.,
%
осадки,
мм/ч
давл.,
гПа
погр.,
м
27 июля, вт
вт2700:00+17ю11677 0.0 102011
03:00+17ююз23715 0.0 102038
06:00+17юз22691 0.0 102036
09:00+24ююз22474 0.0 1019371
12:00+28ю22341 0.0 10192152
15:00+30ю323039 0.0 10172800
18:00+29ююв33318 0.0 10152564
21:00+22юв225367 0.0 101527
28 июля, ср
ср2800:00+19юв2360100 0.0 101435
03:00+17вюв2468100 0.0 101365
06:00+18юв2767100 0.0 1012160
09:00+20ю2470100 0.0 1011215
12:00+22ююз2368100 0.1 1010555
15:00+22юв3668100 0.3 1009835
18:00+23ююз4672100 0.8 1007444
21:00+19юз2590100 6.0 1006107
29 июля, чт
чт2900:00+17зюз2495100 0.0 100572
03:00+16зюз35965 0.0 1005106
06:00+16юз269545 0.0 1004152
09:00+21з357868 0.0 1003535
12:00+24зюз6854100 0.0 10031527
15:00+22зюз69702 0.9 10021191
18:00+21з59766 1.9 10021038
21:00+18зюз38875 2.3 1002226
30 июля, пт
пт3000:00+15юз3894100 0.0 1002186
03:00+15юз31192100 0.0 1001371
06:00+16юз4128947 0.0 1001523
09:00+20зюз610645 0.0 10011125
12:00+23юз710465 0.7 10012057
15:00+23з61041100 0.8 10002518
18:00+21зюз385371 0.1 10001090
21:00+18ююз366599 0.1 999120
31 июля, сб
сб3100:00+15ю3107391 0.1 999208
03:00+14ююз4137788 0.3 997432
06:00+15ююз51369100 0.0 996703
09:00+14ююз61385100 1.4 995982
12:00+15юз6139099 4.8 995875
15:00+20з710700 6.7 9961325
18:00+21зсз510500 0.0 9981403
21:00+16з22740 0.0 99933